CZ-3C DEB, 40207

Orbit data source: Space-Track

CZ-3C DEB, 40207 is space debris in HEO originally from a launch on Fri, 24 Feb 2012 UTC launched from the Xichang Space Center, China (XSC). Debris objects in space refer to the collection of defunct objects orbiting the Earth. Examples of debris include non-operational satellites, rocket bodies, and fragments generated from explosions, collisions, or faulty payload assembly.

Loading next visibility...
Identifier
40207, 2012-008S
Orbit
HEO
Last TLE update
4 days ago
Origin
Manufacturer
CALT
Mission
Spacecraft
Bus & Motor
Unknown
Mass
Unknown
Launch date (UTC)
2012-02-24 (13 years ago)
Launch vehicle
Unknown
Launch site
Xichang Space Center, China (XSC)
Object type
Payload
Rocket body
Debris
Shape & HBR
Unknown
Radar Cross Section
Medium (>0.1 m² and <1 m²)

Expand to show TLE details & history

TLE from 4 days ago
0 CZ-3C DEB
1 40207U 12008S   25195.77838719  .00000126  00000-0  10025-2 0  9995
2 40207  19.1384  71.8257 7215630 158.6469 261.8514  2.23623667 87856
Epoch: 2025-07-14T18:40Z
TLE epoch observation values (Epoch: 2025-07-14T18:40:52.653Z)
Latitude
0.00005°
Longitude
-141.28922°
Altitude
29,752.256 km
Speed
2.435 km/s
True Right ascension
04h 47m 15s
True Declination
0° 00' 00"
Sunlit
Object was in daylight at epoch
Visualization orbit readout
Latitude
-18.77953°
Longitude
139.95782°
Altitude
12,361.808 km
Speed
5.139 km/s
Apparent Right ascension
23h 37m 22s
Apparent Declination
-24° 02' 21"
Sunlit
Object is in daylight
Visualization observer readout
Local Sidereal Time
11:56:01
Azimuth
15.285° NNE
Elevation
-73.645°
Doppler factor
1
Orbital elements
Apogee altitude
36,154.837 km
Perigee altitude
500.934 km
Semi-major axis
24,706.022 km
Eccentricity
0.72156
Inclination
19.1384°
RAAN
71.8257°
Arg. of periapsis
158.6469°
True anomaly
201.30141°
Mean anomaly
261.8514°
Eccentric anomaly
230.12383°
Mean motion
0.55891 °/min
Orbital period
644.12 mins
BSTAR
0.0010025
Loading maneuver chart data...
Loading SW <> Apogee altitude chart data...
Loading historical data...
Loading historical data...
Loading historical data...
Loading historical data...
Loading historical data...
Loading historical data...
Loading historical data...
|